Weather in Havrylivka

Ukraine / Dnipropetrovsk Region     48°04′53″N   36°30′48″E
temp.,
°C
wind,
m/s
gust,
m/s
humid.,
%
clouds,
%
prec.,
mm/h
press.,
hPa
HPBL,
m
9 may, sun
sun900:00+7nnw71291100 6.2 1012746
03:00+7nnw61087100 7.2 1014960
06:00+5nw71387100 0.0 1015723
09:00+6nw71077100 0.0 1018945
12:00+12nnw9114771 0.0 10181893
15:00+13nnw9113880 0.0 10192550
18:00+12nnw710475 0.0 10202205
21:00+7nnw36655 0.0 1023111
10 may, mon
mon1000:00+5nw49745 0.0 1024193
03:00+4nw49795 0.0 1025186
06:00+4nw410790 0.0 1025254
09:00+11nnw79540 0.0 10241230
12:00+14nnw8940100 0.0 10232579
15:00+14nnw81038100 0.0 10212428
18:00+13nnw71149100 0.0 10201954
21:00+11nw71354100 0.0 1018896
11 may, tue
tue1100:00+9nw91571100 0.4 10151096
03:00+8nnw81691100 3.1 1012942
06:00+9nne71389100 0.4 1012934
09:00+9ne71177100 0.4 10131032
12:00+11ne7963100 0.0 10131375
15:00+11nne6963100 0.0 10141522
18:00+9ne677348 0.1 1014990
21:00+7ne478993 0.4 1014356
12 may, wed
wed1200:00+7ese5891100 0.8 1015483
03:00+7e4794100 0.9 1015307
06:00+8e6109276 0.4 1015645
09:00+9e589072 2.3 1014752
12:00+13sse685795 0.7 10131790
15:00+16ssw585394 1.5 10131867
18:00+15s576192 0.4 10141386
21:00+10sse49948 1.6 1015225
13 may, thu
thu1300:00+8sse35955 0.1 101580
03:00+8se339223 0.1 101538
06:00+9e23915 0.0 101665
09:00+16e467397 0.0 1015528
12:00+21ese6755100 0.0 10141314
15:00+23ese7849100 0.0 10131564
18:00+21se6106471 0.0 1013814
21:00+15ese412905 0.0 1013258